Location: Newark
(54.9353°N, 24.1167°E)
Time: 08:31:50
(UTC+00:00)

Envisat - Pass Details

Date: 27 September 2020
Orbit: 764 x 766 km, 98.1° (Epoch: 23 October)

Event Time Altitude Azimuth Distance (km) Brightness Sun altitude
Rises 16:53:12 0° 211° (SSW) 3,225 6.6 -7.2°
Reaches altitude 10° 16:56:12 10° 230° (SW) 2,304 6.1 -7.6°
Maximum altitude 16:59:40 18° 273° (W) 1,806 6.3 -8.1°
Drops below altitude 10° 17:03:09 10° 317° (NW) 2,316 6.3 -8.6°
Sets 17:06:12 0° 336° (NNW) 3,247 6.8 -9.1°
